Weather History for Lihue, HI

Change the Weather History Date:

Monday, April 9, 2012

  Actual Average Record
Temperature  
Mean Temperature 74 °F 74 °F  
Max Temperature 77 °F 79 °F 83 °F (1963)
Min Temperature 70 °F 69 °F 59 °F (1957)
Degree Days  
Heating Degree Days 0 0  
Month to date heating degree days 0 0  
Since 1 July heating degree days 0 0  
Cooling Degree Days 9 9  
Month to date cooling degree days 84 80  
Year to date cooling degree days 833 714  
Growing Degree Days 24 (Base 50)    
Moisture  
Dew Point 62 °F    
Average Humidity 67    
Maximum Humidity 73    
Minimum Humidity 60    
Precipitation  
Precipitation T in 0.08 in 1.00 in (1959)
Month to date precipitation 0.16 0.87  
Year to date precipitation 31.54 12.39  
Snow  
Snow 0.00 in - - ()
Month to date snowfall 0.0  
Since 1 July snowfall 0.0  
Snow Depth 0.00 in    
Sea Level Pressure  
Sea Level Pressure 30.17 in    
Wind  
Wind Speed 18 mph (NE)    
Max Wind Speed 23 mph    
Max Gust Speed 29 mph    
Visibility 10 miles    
Events      
T = Trace of Precipitation, MM = Missing Value Source: NWS Daily Summary

Daily Weather History Graph

Daily Weather History Graph

Search for Another Location

Airport:

Trip Planner

Search our weather history database for the weather conditions in past years. The results will help you decide how hot, cold, wet, or windy it might be!

Date:

Astronomy

Apr. 09, 2012 Rise Set
Actual Time 6:22 AM HST 6:55 PM HST
Civil Twilight 5:59 AM HST 7:18 PM HST
Nautical Twilight 5:33 AM HST 7:44 PM HST
Astronomical Twilight 5:06 AM HST 8:11 PM HST
Moon 10:35 PM HST (4/9) 8:46 AM HST (4/9)
Length of Visible Light 13h 18m
Length of Day
12h 33m
Waning Gibbous, 86% of the Moon is Illuminated
Apr 9
Waning Gibbous
Apr 13
Last Quarter
Apr 20
New
Apr 28
First Quarter
May 5
Full

Hourly Weather History & Observations

Time (HST) Temp. Dew Point Humidity Pressure Visibility Wind Dir Wind Speed Gust Speed Precip Events Conditions
12:21 AM 71.6 °F 60.8 °F 69% 30.21 in 10.0 mi NE 16.1 mph - N/A   Overcast
12:32 AM 71.6 °F 62.6 °F 73% 30.20 in 10.0 mi ENE 16.1 mph - N/A   Overcast
12:53 AM 72.0 °F 62.1 °F 71% 30.19 in 10.0 mi NE 15.0 mph - N/A   Overcast
1:32 AM 71.6 °F 60.8 °F 69% 30.19 in 10.0 mi ENE 18.4 mph - 0.00 in   Overcast
1:41 AM 71.6 °F 60.8 °F 69% 30.19 in 10.0 mi NE 19.6 mph - 0.00 in   Overcast
1:51 AM 71.6 °F 60.8 °F 69% 30.18 in 10.0 mi NE 17.3 mph - 0.00 in   Overcast
1:53 AM 71.1 °F 62.1 °F 73% 30.18 in 10.0 mi NE 20.7 mph 26.5 mph 0.00 in   Overcast
2:53 AM 71.1 °F 60.1 °F 68% 30.17 in 10.0 mi ENE 17.3 mph - N/A   Overcast
3:53 AM 71.1 °F 62.1 °F 73% 30.15 in 10.0 mi NE 15.0 mph - N/A   Overcast
4:53 AM 71.1 °F 61.0 °F 70% 30.14 in 10.0 mi ENE 16.1 mph - N/A   Overcast
5:53 AM 71.1 °F 62.1 °F 73% 30.14 in 10.0 mi ENE 18.4 mph - N/A   Overcast
6:53 AM 72.0 °F 62.1 °F 71% 30.15 in 10.0 mi NE 19.6 mph - N/A   Overcast
7:53 AM 72.0 °F 62.1 °F 71% 30.17 in 10.0 mi NE 17.3 mph - N/A   Mostly Cloudy
8:26 AM 71.6 °F 60.8 °F 69% 30.18 in 10.0 mi ENE 18.4 mph - N/A   Overcast
8:53 AM 72.0 °F 63.0 °F 73% 30.19 in 10.0 mi NE 20.7 mph - 0.00 in   Overcast
9:03 AM 73.4 °F 62.6 °F 69% 30.19 in 10.0 mi NE 19.6 mph - N/A   Overcast
9:14 AM 73.4 °F 62.6 °F 69% 30.19 in 10.0 mi NE 18.4 mph - N/A   Overcast
9:53 AM 73.0 °F 62.1 °F 68% 30.20 in 10.0 mi ENE 17.3 mph - 0.00 in   Overcast
10:53 AM 73.0 °F 62.1 °F 68% 30.20 in 10.0 mi NE 17.3 mph 24.2 mph N/A   Overcast
11:53 AM 75.9 °F 63.0 °F 64% 30.18 in 10.0 mi ENE 15.0 mph - N/A   Overcast
12:53 PM 72.0 °F 63.0 °F 73% 30.17 in 10.0 mi NE 18.4 mph - 0.00 in   Overcast
1:53 PM 75.9 °F 62.1 °F 62% 30.15 in 10.0 mi NE 18.4 mph - N/A   Overcast
2:53 PM 75.0 °F 61.0 °F 62% 30.14 in 10.0 mi ENE 18.4 mph 25.3 mph N/A   Overcast
3:53 PM 73.9 °F 61.0 °F 64% 30.13 in 10.0 mi NE 16.1 mph - N/A   Overcast
4:53 PM 72.0 °F 62.1 °F 71% 30.14 in 10.0 mi NE 19.6 mph - N/A   Mostly Cloudy
5:53 PM 71.1 °F 61.0 °F 70% 30.14 in 10.0 mi ENE 15.0 mph - N/A   Scattered Clouds
6:53 PM 72.0 °F 59.0 °F 64% 30.15 in 10.0 mi NE 17.3 mph - N/A   Overcast
7:53 PM 71.1 °F 61.0 °F 70% 30.16 in 10.0 mi NE 18.4 mph - N/A   Overcast
8:53 PM 71.1 °F 60.1 °F 68% 30.17 in 10.0 mi ENE 19.6 mph - N/A   Mostly Cloudy
9:53 PM 71.1 °F 59.0 °F 66% 30.19 in 10.0 mi NE 18.4 mph - N/A   Partly Cloudy
10:53 PM 71.1 °F 60.1 °F 68% 30.19 in 10.0 mi NE 18.4 mph - N/A   Mostly Cloudy
11:53 PM 69.1 °F 62.1 °F 78% 30.19 in 10.0 mi ENE 19.6 mph 26.5 mph 0.02 in   Overcast